Tracking 27371 objects as of 7-Jun-2023
HD Live streaming from Space Station
objects crossing your sky now

SL-6 R/B(2)

Track SL-6 R/B(2) now!


NORAD ID: 11079
Int'l Code: 1978-095E
Perigee: 945.7 km
Apogee: 35,720.3 km
Inclination: 63.4 °
Period: 644.0 minutes
Semi major axis: 24704 km
RCS: 6.8174 m2 (large)
Launch date: October 13, 1978
Source: Commonwealth of Independent States (former USSR) (CIS)
Launch site: PLESETSK MISSILE AND SPACE COMPLEX (PKMTR)

Note: This is a ROCKET BODY
Your satellite tracking list
Your tracking list is empty




NASA's NSSDC Master Catalog

Two Line Element Set (TLE):
1 11079U 78095E   23157.82845738  .00000092  00000-0  00000-0 0  9991
2 11079  63.4128  94.2673 7038262 277.6626  14.1449  2.23589675 67822
Source of the keplerian elements: AFSPC